COSMOS 2339

Satellite information

Favourite Embed

Satellite Type and Status

PAYLOADIN ORBIT

Key statistics

Satellite COSMOS 2339 at a glance.

Uptime

10534

Days in orbit

Revolutions

≈ 12.6

Per day

Orbit

LEO

Low Earth Orbit

Inclination

82.6

Latest

Satellite identification and parameters

Extended collection of information and parameters for COSMOS 2339.

Object identification

Identified? True

Debris? False

Object name: COSMOS 2339

International designator: 1997-006C

Object number (NORAD): 24727

Object ID (CCSDS): 24727

Country: COMMONWEALTH OF INDEPENDENT STATES (CIS)

Current information (Y/N): Y

RCS size: LARGE

Orbital parameters

Period: 114.071 minutes

Inclination: 82.6052 deg

SMA: 7791.293 km

Apoapsis: 1414.475 km

Periapsis: 1411.842 km

RAAN: 10.6717 deg

Eccentricy: 0.00016897

Argument of periapsis: 86.2478 deg

Mean anomaly: 87.0158 deg

Mean motion: 12.6237509 rev/day

Mean motion (dot): 0.00000037 rev/day2

B* drag term: 0.00014728109 1/REarth

Two-line elements (TLE)

Creation date: Dec. 18, 2025, 2:19 a.m.

Reference frame: TEME

Reference center: EARTH

Epoch: Dec. 17, 2025, 8:15 p.m. UTC

TLE line 0: 0 COSMOS 2339

TLE line 1: 1 24727U 97006C 25351.84420490 .00000037 00000-0 14728-3 0 9996

TLE line 2: 2 24727 82.6052 10.6717 0001690 86.2478 87.0158 12.62375090328692

Live tracking on map

Real-time ground track for satellite COSMOS 2339.

In-orbit conjunctions

A list of the most updated potential collisions computed for object COSMOS 2339.

Target Orbit TCA Probability of collision Miss distance Type
ARIANE 42P DEB LEO 2024-11-05 07:26:20 0.0004483031 384.0 (m) DEBRIS

Associated space launch

Gonets- satellite were the civilian derivate of the military Strela-3 satellite system. The Gonets system was offered to support international health organizations to meet their global communications needs for the transfer of medical data and records to remote sites. Strela-3 was second generation of strategic store-dump military communications satellite. Development of this generation to replace the first generation Strela-1M and Strela-2M satellites began in 1973.

COSMOS 2339 was lifted into orbit during the mission ‘Tsiklon-3 | Strela-3 116 to 118 & Gonets 4 to 6’, on board a Tsiklon-3 space rocket.

The launch took place on Feb. 14, 1997, 3:47 a.m. from 32/1.

For more information about the launch, click the button.

Launch to space Tsiklon-3 | Strela-3 116 to 118 & Gonets 4 to 6
Tsiklon-3 | Strela-3 116 to 118 & Gonets 4 to 6

Agency: N/A

Status: Launch Successful

Launch date: Feb. 14, 1997, 3:47 a.m. UTC

Rocket: Tsiklon-3

Launch pad: 32/1

Location: Plesetsk Cosmodrome, Russian Federation

...

Latest news about this satellite

There are no fresh news available about this satellite. Check back as we update our databases every day.


Newsletter sign-up

Weekly statistics, charts and insights to help you stay on top of the space industry.